Flag for Montenegro Weather past 2 weeks in Podgorica, Montenegro

63 °F

Partly cloudy.

Feels Like: 63 °F
Forecast: 56 / 76 °F
Wind: 3 mph from West

Location: Podgorica Titograd

Current Time: Oct 8, 2015 at 9:11:32 PM

Latest Report: Oct 8, 2015 at 9:00 PM

Visibility: N/A

Pressure: 29.98 "Hg

Humidity: 94%

Dew point: 61 °F

Location of PodgoricaLocation

Historic Weather in Podgorica — Graph


Podgorica temperature yesterday

Maximum temperature yesterday: 75 °F (at 2:00 PM)
Minimum temperature yesterday: 63 °F (at 3:00 AM)
Average temperature yesterday: 67 °F

Past Weeks' High & Low Weather Summary

High81 °F (Sep 24, 2:00 PM)100% (Oct 4, 7:00 AM)30.27 "Hg (Oct 4, 7:00 AM)
Low55 °F (Oct 3, 5:00 AM)33% (Sep 28, 1:00 PM)29.74 "Hg (Oct 7, 2:00 PM)
Average68 °F62%30.02 "Hg
* Reported Sep 23 8:00 PM — Oct 8 8:00 PM, Podgorica, Weather by CustomWeather, © 2015

Note: Actual official high and low records may vary slightly from our data, if they occured in-between our weather recording intervals... More about our weather records


Podgorica weather history for previous 24 hours

Time TempWeatherWind HumidityBarometerVisibility
8:00 PM
Thu, Oct 8
64 °FPartly cloudy.1 mph88%29.95 "HgN/A
7:30 PM64 °FPartly cloudy.2 mph88%29.95 "HgN/A
7:00 PM64 °FBroken clouds.2 mph88%29.92 "HgN/A
6:30 PM66 °FScattered clouds.2 mph83%29.92 "HgN/A
6:00 PM66 °FScattered clouds.2 mph83%29.92 "HgN/A
5:30 PM66 °FScattered clouds.3 mph83%29.92 "HgN/A
5:00 PM68 °FScattered clouds.3 mph78%29.92 "HgN/A
4:30 PM66 °FScattered clouds.3 mph83%29.92 "HgN/A
4:00 PM66 °FBroken clouds.2 mph83%29.92 "HgN/A
3:30 PM66 °FMostly cloudy.3 mph83%29.92 "HgN/A
3:00 PM66 °FMostly cloudy.5 mph83%29.92 "HgN/A
2:30 PM64 °FMostly cloudy.6 mph88%29.92 "HgN/A
2:00 PM64 °FMostly cloudy.6 mph88%29.92 "HgN/A
1:30 PM64 °FMostly cloudy.7 mph88%29.92 "HgN/A
1:00 PM64 °FLight rain. Mostly cloudy.7 mph88%29.92 "HgN/A
12:30 PM64 °FLight rain. Mostly cloudy.7 mph88%29.92 "HgN/A
12:00 PM64 °FLight rain. Mostly cloudy.5 mph88%29.92 "HgN/A
11:30 AM64 °FLight rain. Mostly cloudy.6 mph88%29.92 "HgN/A
11:00 AM63 °FLight rain. Mostly cloudy.8 mph94%29.89 "HgN/A
10:30 AM63 °FRain. Mostly cloudy.8 mph94%29.89 "HgN/A
10:00 AM63 °FLight rain. Mostly cloudy.6 mph94%29.89 "HgN/A
9:30 AM63 °FLight rain. Mostly cloudy.3 mph100%29.89 "HgN/A
9:00 AM63 °FLight rain. Mostly cloudy.5 mph100%29.89 "Hg5 mi
8:30 AM63 °FLight rain. Mostly cloudy.2 mph100%29.86 "Hg4 mi
8:00 AM63 °FLight rain. Mostly cloudy.2 mph100%29.86 "HgN/A
7:30 AM63 °FLight rain. Mostly cloudy.5 mph100%29.83 "HgN/A
7:00 AM63 °FLight rain. Mostly cloudy.5 mph94%29.83 "HgN/A
6:00 AM63 °FLight rain. Mostly cloudy.2 mph94%29.83 "HgN/A
5:30 AM63 °FMostly cloudy.3 mph94%29.83 "HgN/A
5:00 AM63 °FMostly cloudy.5 mph94%29.83 "HgN/A
4:30 AM61 °FMostly cloudy.3 mph100%29.83 "HgN/A
4:00 AM63 °FLight rain. Mostly cloudy.2 mph94%29.83 "HgN/A
3:30 AM61 °FLight rain. Mostly cloudy.2 mph100%29.83 "HgN/A
3:00 AM61 °FLight rain. Mostly cloudy.3 mph100%29.83 "HgN/A
2:30 AM61 °FLight rain. Mostly cloudy.1 mph100%29.83 "HgN/A
2:00 AM61 °FRain. Mostly cloudy.3 mph100%29.83 "HgN/A
1:30 AM63 °FRain. Mostly cloudy.6 mph94%29.83 "HgN/A
1:00 AM63 °FRain. Mostly cloudy.2 mph94%29.83 "HgN/A
12:30 AM63 °FRain. Mostly cloudy.5 mph100%29.83 "HgN/A
12:00 AM63 °FStrong thunderstorms. Partly cloudy.3 mph94%29.83 "Hg5 mi
11:00 PM
Wed, Oct 7
64 °FThundershowers. Passing clouds.12 mph88%29.80 "HgN/A
10:30 PM68 °FThundershowers. Passing clouds.8 mph83%29.80 "HgN/A
10:00 PM68 °FPartly cloudy.3 mph83%29.77 "HgN/A
9:30 PM68 °FThundershowers. Passing clouds.5 mph83%29.77 "HgN/A
9:00 PM70 °FPartly cloudy.3 mph73%29.77 "HgN/A
Weather by CustomWeather, © 2015

See weather overviewHow to use our weather pages